Location: Cosenza
(39.3000°N, 16.2500°E)
Time: 03:55:04
(UTC+01:00)

ISS - Visible Passes

Search period start: 23 January 2019 00:00
Search period end: 02 February 2019 00:00
Orbit: 404 x 411 km, 51.6° (Epoch: 23 January)

Date Brightness Start Highest point End Pass type
(mag) Time Alt. Az. Time Alt. Az. Time Alt. Az.
23 Jan -3.5 18:37:10 10° WSW 18:40:26 60° NW 18:41:04 48° NNE visible
24 Jan -3.8 17:45:49 10° SW 17:49:05 69° SE 17:52:03 12° ENE visible
24 Jan -1.1 19:23:27 10° WNW 19:24:46 16° NW 19:24:46 16° NW visible
25 Jan -2.2 18:31:29 10° W 18:34:22 28° NNW 18:35:40 21° N visible
26 Jan -3.0 17:39:42 10° WSW 17:42:53 45° NNW 17:46:05 10° NE visible
26 Jan -0.9 19:18:27 10° NW 19:19:13 12° NNW 19:19:13 12° NNW visible
27 Jan -1.5 18:26:11 10° WNW 18:28:25 17° NNW 18:30:00 13° NNE visible
28 Jan -1.9 17:34:05 10° W 17:36:48 23° NNW 17:39:31 10° NNE visible
29 Jan -1.2 18:21:13 10° NW 18:22:32 12° NNW 18:23:51 10° NNE visible
01 Feb -1.0 19:01:21 10° N 19:01:34 10° N 19:01:34 10° N visible
